CW3660 Weather Reports


Display with metric or nautical units.
time (UTC)temp
F
wind
direction
speed
MPH
gust
MPH
rain 1hr
in
rain 24hr
in
rain mn
in
humidity
%
barometer
mb
20260506051016 63 203 3.0 9.0 0.00 0.00 0.00 67 1009.0
20260506045016 63 225 3.0 9.0 0.00 0.00 0.00 67 1009.1
20260506044036 63 225 4.0 12.0 0.00 0.00 0.00 66 1009.1
20260506043016 63 180 4.0 12.0 0.00 0.00 0.00 66 1009.1
20260506042016 63 203 3.0 8.0 0.00 0.00 0.00 66 1009.1
20260506041016 63 225 4.0 10.0 0.00 0.00 0.00 66 1009.1
20260506040016 63 225 3.0 10.0 0.00 0.00 0.00 65 1009.1
20260506035056 64 180 4.0 12.0 0.00 0.00 0.00 65 1009.1
20260506034037 64 225 5.0 12.0 0.00 0.00 0.00 64 1009.0
20260506033017 64 225 4.0 19.0 0.00 0.00 0.00 64 1009.0
20260506032016 64 203 4.0 16.0 0.00 0.00 0.00 63 1009.0
20260506031016 65 225 5.0 14.0 0.00 0.00 0.00 62 1009.0
20260506030016 65 225 4.0 11.0 0.00 0.00 0.00 62 1009.1
20260506025016 65 203 4.0 13.0 0.00 0.00 0.00 61 1009.1
20260506024016 65 203 3.0 7.0 0.00 0.00 0.00 60 1009.1
20260506023036 66 180 3.0 9.0 0.00 0.00 0.00 60 1009.1
20260506022016 66 203 3.0 10.0 0.00 0.00 0.00 59 1009.1
20260506021016 66 248 4.0 14.0 0.00 0.00 0.00 59 1009.2
20260506020016 67 225 4.0 9.0 0.00 0.00 0.00 58 1009.1
20260506015016 67 203 3.0 10.0 0.00 0.00 0.00 58 1009.1
20260506014016 68 225 3.0 9.0 0.00 0.00 0.00 57 1009.0
20260506013016 68 203 4.0 13.0 0.00 0.00 0.00 56 1008.6
20260506012016 68 225 5.0 15.0 0.00 0.00 0.00 56 1008.3
20260506011016 69 203 6.0 15.0 0.00 0.00 0.00 55 1008.2
20260506010016 69 225 4.0 9.0 0.00 0.00 0.00 53 1008.0
20260506005016 70 225 6.0 15.0 0.00 0.00 0.00 53 1007.9
20260506004016 70 225 6.0 18.0 0.00 0.00 0.00 51 1007.7
20260506003016 71 203 7.0 18.0 0.00 0.00 0.00 50 1007.3
20260506002036 71 225 6.0 16.0 0.00 0.00 0.00 48 1007.3
20260506001016 72 203 6.0 17.0 0.00 0.00 0.00 47 1007.2
20260506000016 73 180 4.0 15.0 0.00 0.00 0.00 46 1007.1
20260505235016 73 225 5.0 13.0 0.00 0.00 0.00 45 1006.8
20260505234036 74 203 6.0 16.0 0.00 0.00 0.00 44 1006.7
20260505233016 74 225 6.0 19.0 0.00 0.00 0.00 44 1006.4
20260505232015 74 225 6.0 18.0 0.00 0.00 0.00 43 1006.4
20260505231016 75 225 6.0 17.0 0.00 0.00 0.00 43 1006.3
20260505230036 75 203 6.0 17.0 0.00 0.00 0.00 42 1006.1
20260505225015 76 203 8.0 18.0 0.00 0.00 0.00 41 1005.9
20260505224016 76 225 8.0 28.0 0.00 0.00 0.00 41 1005.7
20260505223036 77 203 7.0 22.0 0.00 0.00 0.00 41 1005.5
20260505222015 78 203 7.0 20.0 0.00 0.00 0.00 40 1005.2
20260505221016 78 225 7.0 18.0 0.00 0.00 0.00 40 1005.1
20260505220036 78 203 9.0 23.0 0.00 0.00 0.00 39 1005.1
20260505215036 79 203 8.0 22.0 0.00 0.00 0.00 38 1005.3
20260505214016 79 225 8.0 28.0 0.00 0.00 0.00 37 1005.1
20260505213036 80 203 7.0 29.0 0.00 0.00 0.00 36 1005.0
20260505212016 81 225 8.0 21.0 0.00 0.00 0.00 35 1004.9
20260505211015 81 225 9.0 25.0 0.00 0.00 0.00 35 1004.8
20260505210015 81 203 8.0 20.0 0.00 0.00 0.00 34 1004.7
20260505205035 81 203 9.0 28.0 0.00 0.00 0.00 34 1004.7
20260505204015 82 225 6.0 20.0 0.00 0.00 0.00 34 1004.7
20260505203015 82 203 6.0 18.0 0.00 0.00 0.00 34 1004.6
20260505202015 82 225 8.0 21.0 0.00 0.00 0.00 34 1004.7
20260505201015 82 225 9.0 22.0 0.00 0.00 0.00 34 1004.7
20260505200035 83 203 7.0 17.0 0.00 0.00 0.00 33 1004.7
20260505195016 83 225 8.0 20.0 0.00 0.00 0.00 35 1004.8
20260505194015 83 203 9.0 17.0 0.00 0.00 0.00 34 1004.8
20260505193035 83 203 9.0 21.0 0.00 0.00 0.00 34 1004.9
20260505192015 83 225 8.0 18.0 0.00 0.00 0.00 34 1005.2
20260505191015 83 225 8.0 21.0 0.00 0.00 0.00 34 1005.2
20260505190035 83 225 9.0 23.0 0.00 0.00 0.00 33 1005.5
20260505185017 84 203 6.0 19.0 0.00 0.00 0.00 32 1005.5
20260505184017 83 248 8.0 27.0 0.00 0.00 0.00 33 1005.6
20260505183017 83 225 9.0 23.0 0.00 0.00 0.00 33 1005.9
20260505182017 83 225 8.0 32.0 0.00 0.00 0.00 34 1006.1
20260505181057 83 225 6.0 21.0 0.00 0.00 0.00 35 1006.3
20260505180017 84 203 5.0 21.0 0.00 0.00 0.00 34 1006.3
20260505175038 83 225 5.0 15.0 0.00 0.00 0.00 37 1006.3
20260505174037 82 203 6.0 20.0 0.00 0.00 0.00 37 1006.6
20260505173017 82 225 6.0 17.0 0.00 0.00 0.00 39 1006.8
20260505172017 81 203 6.0 17.0 0.00 0.00 0.00 38 1007.0
20260505171017 81 225 5.0 10.0 0.00 0.00 0.00 39 1007.2
20260505170037 80 180 7.0 16.0 0.00 0.00 0.00 39 1007.5
20260505165017 80 203 6.0 18.0 0.00 0.00 0.00 40 1007.6
20260505164017 79 225 6.0 20.0 0.00 0.00 0.00 41 1007.7
20260505163017 80 203 5.0 17.0 0.00 0.00 0.00 40 1007.8
20260505162017 79 158 5.0 13.0 0.00 0.00 0.00 42 1008.1
20260505161017 79 225 4.0 8.0 0.00 0.00 0.00 43 1008.4
20260505153017 75 180 5.0 11.0 0.00 0.00 0.00 47 1008.8
20260505152017 74 203 4.0 10.0 0.00 0.00 0.00 49 1009.0
20260505151017 73 225 3.0 8.0 0.00 0.00 0.00 50 1009.1
20260505125017 64 248 3.0 8.0 0.00 0.00 0.00 63 1009.3
20260505124016 63 248 3.0 8.0 0.00 0.00 0.00 65 1009.4
20260505123016 61 203 3.0 11.0 0.00 0.00 0.00 68 1009.4
20260505122016 60 180 2.0 6.0 0.00 0.00 0.00 70 1009.4
20260505121017 59 203 3.0 10.0 0.00 0.00 0.00 71 1009.5
20260505120016 59 225 2.0 7.0 0.00 0.00 0.00 72 1009.3
20260505115016 58 248 2.0 7.0 0.00 0.00 0.00 72 1009.5
20260505114017 58 158 3.0 8.0 0.00 0.00 0.00 73 1009.3
20260505113016 57 158 3.0 7.0 0.00 0.00 0.00 75 1009.3
20260505112016 55 158 2.0 6.0 0.00 0.00 0.00 76 1009.4
20260505111037 55 158 3.0 8.0 0.00 0.00 0.00 77 1009.2
20260505102016 54 180 3.0 7.0 0.00 0.00 0.00 77 1009.2
20260505101016 53 180 2.0 5.0 0.00 0.00 0.00 77 1009.1
20260505100017 53 180 2.0 5.0 0.00 0.00 0.00 76 1009.1
20260505095017 53 180 2.0 6.0 0.00 0.00 0.00 76 1009.1
20260505094016 53 158 2.0 5.0 0.00 0.00 0.00 76 1009.1
20260505093017 53 158 2.0 5.0 0.00 0.00 0.00 75 1009.2
20260505092037 53 158 2.0 6.0 0.00 0.00 0.00 75 1009.1
20260505091016 53 180 2.0 7.0 0.00 0.00 0.00 75 1009.2
20260505090017 53 180 3.0 8.0 0.00 0.00 0.00 75 1009.1
20260505085016 53 180 3.0 6.0 0.00 0.00 0.00 75 1009.3
20260505084016 52 180 2.0 7.0 0.00 0.00 0.00 75 1009.2
20260505083016 52 180 2.0 5.0 0.00 0.00 0.00 75 1009.4
20260505082016 53 180 2.0 6.0 0.00 0.00 0.00 74 1009.4
20260505081016 53 180 2.0 4.0 0.00 0.00 0.00 74 1009.4
20260505080016 53 158 2.0 4.0 0.00 0.00 0.00 73 1009.4
20260505075016 53 158 2.0 4.0 0.00 0.00 0.00 73 1009.5
20260505074016 53 158 2.0 6.0 0.00 0.00 0.00 72 1009.6
20260505073016 53 180 3.0 5.0 0.00 0.00 0.00 72 1009.6
20260505072016 54 180 2.0 7.0 0.00 0.00 0.00 71 1009.5
20260505071016 54 180 2.0 5.0 0.00 0.00 0.00 71 1009.6
20260505070036 54 203 3.0 7.0 0.00 0.00 0.00 71 1009.7
20260505065016 54 180 3.0 9.0 0.00 0.00 0.00 70 1009.7
20260505064016 54 180 2.0 6.0 0.00 0.00 0.00 70 1009.7
20260505063016 54 180 2.0 5.0 0.00 0.00 0.00 69 1009.7
20260505062016 54 225 2.0 5.0 0.00 0.00 0.00 69 1009.7
20260505061016 55 180 2.0 5.0 0.00 0.00 0.00 69 1009.7
20260505060016 55 180 2.0 7.0 0.00 0.00 0.00 68 1009.8